Flag for Russia Weather past 2 weeks in Nizhny Novgorod, Russia

Now
59 °F

Passing clouds.


Feels Like: 60 °F
Forecast: 49 / 59 °F
Wind: 3 mph from West

Location: Nizhny Novgorod/Strigino

Current Time: Jul 5, 2015 at 11:08:28 PM

Latest Report: Jul 5, 2015 at 10:30 PM


Visibility: N/A

Pressure: 29.77 "Hg

Humidity: 88%

Dew point: 55 °F

Location of Nizhny NovgorodLocation

Historic Weather in Nizhny Novgorod — Graph

°F

Nizhny Novgorod temperature yesterday

Maximum temperature yesterday: 82 °F (at 3:00 PM)
Minimum temperature yesterday: 57 °F (at 2:00 AM)
Average temperature yesterday: 70 °F

Past Weeks' High & Low Weather Summary

 TemperatureHumidityPressure
High88 °F (Jun 21, 12:00 PM)100% (Jun 22, 10:00 PM)30.18 "Hg (Jun 22, 10:00 PM)
Low55 °F (Jul 3, 4:30 AM)34% (Jul 2, 3:30 PM)29.62 "Hg (Jun 27, 6:30 PM)
Average69 °F75%29.86 "Hg
* Reported Jun 20 10:00 PM — Jul 5 10:00 PM, Nizhny Novgorod, Weather by CustomWeather, © 2015

Note: Actual official high and low records may vary slightly from our data, if they occured in-between our weather recording intervals... More about our weather records

Advertising

Nizhny Novgorod weather history for previous 24 hours

 ConditionsComfort  
Time TempWeatherWind HumidityBarometerVisibility
10:00 PM
Sun, Jul 5
59 °FPassing clouds.3 mph94%29.77 "HgN/A
9:30 PM61 °FScattered clouds.3 mph88%29.77 "Hg6 mi
9:00 PM61 °FScattered clouds.3 mph83%29.77 "HgN/A
8:30 PM61 °FScattered clouds.3 mph83%29.77 "HgN/A
8:00 PM63 °FScattered clouds.3 mph77%29.77 "HgN/A
7:30 PM63 °FScattered clouds.1 mph83%29.74 "HgN/A
7:00 PM64 °FScattered clouds.3 mph78%29.74 "HgN/A
6:30 PM64 °FScattered clouds.1 mph78%29.74 "HgN/A
6:00 PM66 °FScattered clouds.3 mph78%29.74 "HgN/A
5:30 PM64 °FScattered clouds.6 mph83%29.74 "HgN/A
5:00 PM64 °FPartly sunny.3 mph94%29.74 "Hg6 mi
4:30 PM64 °FScattered clouds.3 mph94%29.71 "Hg6 mi
4:00 PM66 °FScattered clouds.6 mph88%29.71 "HgN/A
3:30 PM64 °FPartly sunny.3 mph94%29.71 "Hg4 mi
3:00 PM63 °FThunderstorms. Overcast.6 mph94%29.74 "Hg3 mi
2:30 PM63 °FThunderstorms. Low clouds.3 mph94%29.71 "Hg2 mi
2:00 PM64 °FThunderstorms. Partly sunny.10 mph88%29.71 "Hg2 mi
1:30 PM63 °FThunderstorms. Partly sunny.6 mph94%29.68 "Hg2 mi
1:00 PM63 °FThunderstorms. Partly sunny.3 mph77%29.74 "HgN/A
12:30 PM68 °FThunderstorms. Partly sunny.10 mph64%29.74 "HgN/A
12:00 PM79 °FPartly sunny.10 mph51%29.68 "HgN/A
11:30 AM79 °FScattered clouds.8 mph54%29.71 "HgN/A
11:00 AM77 °FScattered clouds.6 mph57%29.71 "HgN/A
10:30 AM77 °FScattered clouds.6 mph57%29.71 "HgN/A
10:00 AM77 °FScattered clouds.6 mph57%29.74 "HgN/A
9:30 AM75 °FScattered clouds.6 mph61%29.77 "HgN/A
9:00 AM73 °FScattered clouds.3 mph65%29.77 "HgN/A
8:30 AM72 °FClear.3 mph69%29.80 "Hg6 mi
8:00 AM70 °FPassing clouds.3 mph73%29.80 "HgN/A
7:30 AM70 °FPassing clouds.3 mph69%29.80 "HgN/A
6:30 AM70 °FSunny.1 mph69%29.80 "Hg10 mi
6:00 AM68 °FPassing clouds.3 mph73%29.80 "HgN/A
5:30 AM68 °FPassing clouds.3 mph73%29.80 "HgN/A
5:00 AM66 °FPassing clouds.3 mph78%29.80 "HgN/A
4:30 AM66 °FPassing clouds.3 mph78%29.80 "HgN/A
4:00 AM66 °FClear.3 mph78%29.80 "Hg10 mi
3:30 AM66 °FPassing clouds.3 mph78%29.80 "HgN/A
3:00 AM68 °FClear.3 mph69%29.80 "Hg10 mi
2:30 AM68 °FPassing clouds.3 mph73%29.80 "HgN/A
2:00 AM66 °FPassing clouds.3 mph78%29.83 "HgN/A
1:30 AM61 °FClear.3 mph88%29.83 "Hg6 mi
1:00 AM63 °FClear.3 mph88%29.83 "Hg6 mi
12:30 AM66 °FClear.3 mph78%29.83 "Hg10 mi
12:00 AM64 °FClear.3 mph83%29.86 "Hg10 mi
11:30 PM
Sat, Jul 4
64 °FClear.6 mph83%29.86 "Hg10 mi
11:00 PM64 °FPassing clouds.3 mph83%29.86 "HgN/A
Weather by CustomWeather, © 2015

See weather overviewHow to use our weather pages